Weather History for Mackall AAF, NC

Change the Weather History Date:

Monday, December 17, 2012

  Actual Average Record
Temperature  
Mean Temperature 56 °F -  
Max Temperature 60 °F 54 °F 71 °F (2001)
Min Temperature 53 °F 34 °F 22 °F (2007)
Degree Days  
Heating Degree Days 8    
Growing Degree Days 6 (Base 50)    
Moisture  
Dew Point 55 °F    
Average Humidity 92    
Maximum Humidity 100    
Minimum Humidity 81    
Precipitation  
Precipitation 0.54 in - - ()
Sea Level Pressure  
Sea Level Pressure 29.83 in    
Wind  
Wind Speed 5 mph (SW)    
Max Wind Speed 22 mph    
Max Gust Speed 28 mph    
Visibility 8 miles    
Events Rain    
Averages and records for this station are not official NWS values.
T = Trace of Precipitation, MM = Missing Value Source: NWS Daily Summary

Daily Weather History Graph

Daily Weather History Graph

Search for Another Location

Airport:

Trip Planner

Search our weather history database for the weather conditions in past years. The results will help you decide how hot, cold, wet, or windy it might be!

Date:

Astronomy

Dec. 17, 2012 Rise Set
Actual Time 7:20 AM EST 5:08 PM EST
Civil Twilight 6:52 AM EST 5:36 PM EST
Nautical Twilight 6:20 AM EST 6:08 PM EST
Astronomical Twilight 5:49 AM EST 6:39 PM EST
Moon 10:37 AM EST 10:17 PM EST
Length of Visible Light 10h 44m
Length of Day
9h 48m
Waxing Crescent, 24% of the Moon is Illuminated
Dec 17
Waxing Crescent
Dec 20
First Quarter
Dec 28
Full
Jan 4
Last Quarter
Jan 11
New

Hourly Weather History & Observations

Time (EST) Temp. Dew Point Humidity Pressure Visibility Wind Dir Wind Speed Gust Speed Precip Events Conditions
12:55 AM 55.2 °F 54.5 °F 97% 29.91 in 2.5 mi WNW 3.5 mph - 0.06 in Rain Rain
1:48 AM 55.4 °F 55.4 °F 100% 29.90 in 2.5 mi Variable 1.2 mph - N/A Rain Heavy Rain
1:53 AM 55.4 °F 53.6 °F 94% 29.89 in 1.8 mi NE 2.3 mph - N/A Rain Heavy Rain
1:55 AM 54.9 °F 54.1 °F 97% 29.89 in 1.8 mi NE 2.3 mph - 0.13 in Rain Heavy Rain
2:17 AM 55.4 °F 53.6 °F 94% 29.91 in 2.0 mi South 3.5 mph - 0.19 in Rain Rain
2:25 AM 55.4 °F 53.6 °F 94% 29.91 in 2.5 mi SSW 2.3 mph - N/A Rain Rain
2:29 AM 55.4 °F 53.6 °F 94% 29.91 in 3.0 mi SSW 2.3 mph - N/A Rain Rain
2:40 AM 55.4 °F 53.6 °F 94% 29.90 in 2.5 mi Calm Calm - N/A Rain Rain
2:45 AM 55.4 °F 53.6 °F 94% 29.89 in 1.8 mi East 1.2 mph - N/A Rain Rain
2:46 AM 55.4 °F 53.6 °F 94% 29.89 in 1.5 mi Variable 1.2 mph - N/A Rain Rain
2:55 AM 54.9 °F 54.3 °F 98% 29.89 in 1.5 mi Variable 1.2 mph - 0.13 in Rain Rain
2:57 AM 55.4 °F 53.6 °F 94% 29.90 in 1.8 mi West 2.3 mph - N/A Rain Rain
3:02 AM 55.4 °F 53.6 °F 94% 29.90 in 2.0 mi WNW 2.3 mph - N/A Rain Rain
3:03 AM 55.4 °F 53.6 °F 94% 29.90 in 2.5 mi West 2.3 mph - N/A Rain Rain
3:22 AM 55.4 °F 53.6 °F 94% 29.90 in 3.0 mi SW 2.3 mph - N/A Rain Rain
3:55 AM 54.5 °F 54.0 °F 98% 29.87 in 3.0 mi SE 6.9 mph - 0.09 in Rain Rain
4:17 AM 55.4 °F 53.6 °F 94% 29.86 in 5.0 mi SE 2.3 mph - N/A Rain Light Rain
4:40 AM 53.6 °F 53.6 °F 100% 29.84 in 4.0 mi SSE 4.6 mph - N/A   Mostly Cloudy
4:47 AM 55.4 °F 53.6 °F 94% 29.84 in 6.0 mi SSE 4.6 mph - N/A Rain Light Rain Showers
4:55 AM 54.5 °F 54.0 °F 98% 29.83 in 9.0 mi SE 5.8 mph - 0.00 in Rain Light Rain Showers
5:15 AM 55.4 °F 53.6 °F 94% 29.80 in 10.0 mi SE 10.4 mph - N/A   Mostly Cloudy
5:17 AM 55.4 °F 53.6 °F 94% 29.79 in 10.0 mi SE 10.4 mph - N/A   Mostly Cloudy
5:55 AM 54.7 °F 54.0 °F 97% 29.78 in 10.0 mi SSE 9.2 mph - N/A   Mostly Cloudy
6:43 AM 55.4 °F 53.6 °F 94% 29.85 in 10.0 mi NW 6.9 mph 16.1 mph N/A   Mostly Cloudy
6:52 AM 55.4 °F 53.6 °F 94% 29.86 in 10.0 mi WNW 3.5 mph - N/A   Mostly Cloudy
6:55 AM 55.2 °F 54.3 °F 97% 29.86 in 10.0 mi NW 5.8 mph - N/A   Mostly Cloudy
7:22 AM 55.4 °F 53.6 °F 94% 29.88 in 10.0 mi NW 4.6 mph - N/A   Mostly Cloudy
7:27 AM 55.4 °F 53.6 °F 94% 29.87 in 10.0 mi NW 3.5 mph - N/A   Mostly Cloudy
7:55 AM 55.2 °F 54.3 °F 97% 29.87 in 10.0 mi NW 3.5 mph - N/A   Mostly Cloudy
8:55 AM 56.8 °F 55.6 °F 96% 29.89 in 10.0 mi NNW 4.6 mph - N/A   Mostly Cloudy
9:27 AM 57.2 °F 55.4 °F 94% 29.88 in 10.0 mi WNW 4.6 mph - N/A   Mostly Cloudy
9:55 AM 57.9 °F 54.7 °F 89% 29.88 in 10.0 mi West 2.3 mph - 0.00 in   Mostly Cloudy
10:37 AM 59.0 °F 55.4 °F 88% 29.87 in 10.0 mi WSW 3.5 mph - N/A   Mostly Cloudy
10:55 AM 58.8 °F 55.4 °F 88% 29.87 in 10.0 mi WSW 4.6 mph - N/A   Mostly Cloudy
10:57 AM 59.0 °F 55.4 °F 88% 29.86 in 10.0 mi SW 5.8 mph - N/A   Scattered Clouds
11:17 AM 60.8 °F 55.4 °F 82% 29.87 in 10.0 mi SW 5.8 mph - N/A   Mostly Cloudy
11:37 AM 59.0 °F 55.4 °F 88% 29.86 in 10.0 mi WSW 9.2 mph - N/A   Mostly Cloudy
11:55 AM 60.3 °F 55.4 °F 84% 29.84 in 10.0 mi SW 6.9 mph - N/A   Mostly Cloudy
12:55 PM 60.8 °F 54.9 °F 81% 29.81 in 10.0 mi SW 6.9 mph - N/A   Mostly Cloudy
1:15 PM 60.8 °F 55.4 °F 82% 29.81 in 10.0 mi SSW 8.1 mph - N/A Rain Light Rain
1:16 PM 60.8 °F 55.4 °F 82% 29.81 in 10.0 mi SSW 8.1 mph - N/A Rain Light Rain
1:21 PM 60.8 °F 55.4 °F 82% 29.81 in 10.0 mi SW 9.2 mph - N/A Rain Light Rain Showers
1:41 PM 59.0 °F 55.4 °F 88% 29.81 in 10.0 mi WSW 6.9 mph - N/A Rain Light Rain Showers
1:55 PM 59.4 °F 56.1 °F 89% 29.80 in 10.0 mi South 6.9 mph - N/A Rain Light Rain Showers
2:55 PM 57.6 °F 55.9 °F 94% 29.81 in 10.0 mi SSW 8.1 mph - 0.02 in Rain Light Rain
2:56 PM 57.2 °F 55.4 °F 94% 29.82 in 10.0 mi SSW 6.9 mph - N/A Rain Light Rain
3:12 PM 57.2 °F 55.4 °F 94% 29.81 in 10.0 mi SSW 6.9 mph - N/A Rain Light Rain
3:17 PM 57.2 °F 55.4 °F 94% 29.81 in 10.0 mi South 6.9 mph - N/A Rain Light Rain
3:27 PM 57.2 °F 55.4 °F 94% 29.81 in 10.0 mi South 8.1 mph - N/A Rain Light Rain
3:47 PM 57.2 °F 55.4 °F 94% 29.81 in 8.0 mi SSW 8.1 mph - N/A Rain Rain
3:55 PM 57.2 °F 55.9 °F 96% 29.81 in 8.0 mi South 8.1 mph - 0.02 in Rain Rain
4:27 PM 57.2 °F 55.4 °F 94% 29.80 in 8.0 mi South 8.1 mph - N/A Rain Light Rain
4:55 PM 57.2 °F 55.9 °F 96% 29.77 in 7.0 mi SSE 9.2 mph - 0.09 in Rain Rain
7:20 PM 59.0 °F 55.4 °F 88% 29.62 in 10.0 mi SSE 21.9 mph 27.6 mph N/A   Mostly Cloudy
7:32 PM 59.0 °F 55.4 °F 88% 29.70 in 10.0 mi WSW 13.8 mph 26.5 mph N/A   Mostly Cloudy
7:37 PM 59.0 °F 55.4 °F 88% 29.71 in 10.0 mi West 11.5 mph 20.7 mph N/A   Mostly Cloudy
7:55 PM 57.9 °F 55.2 °F 91% 29.72 in 10.0 mi WSW 10.4 mph 17.3 mph N/A   Mostly Cloudy
8:55 PM 57.9 °F 55.2 °F 91% 29.73 in 10.0 mi SW 6.9 mph - N/A   Mostly Cloudy
9:41 PM 59.0 °F 55.4 °F 88% 29.72 in 10.0 mi SSW 6.9 mph - N/A   Overcast
9:55 PM 58.3 °F 55.2 °F 90% 29.72 in 10.0 mi SSW 9.2 mph - N/A   Overcast
10:12 PM 59.0 °F 55.4 °F 88% 29.72 in 10.0 mi SSW 10.4 mph - N/A   Mostly Cloudy
10:32 PM 59.0 °F 55.4 °F 88% 29.72 in 10.0 mi SW 10.4 mph - N/A   Overcast
10:55 PM 58.6 °F 55.4 °F 89% 29.72 in 10.0 mi SSW 11.5 mph 18.4 mph N/A   Overcast
11:16 PM 59.0 °F 55.4 °F 88% 29.72 in 10.0 mi SW 13.8 mph 19.6 mph N/A   Overcast
11:55 PM 58.3 °F 55.6 °F 91% 29.70 in 10.0 mi SSW 12.7 mph 19.6 mph N/A   Overcast